sat.trackr.live / text

‹ back to catalog

STARLINK-5644

NORAD 55369 · 2023-013AQ

PAYLOAD ACTIVE UNKNOWN

§ Identity

Operator
Country
US
Launch date
2023-01-26
Launch site
AFETR
Launch vehicle
Mass (kg)
RCS (m²)

Purposes: comms

External: N2YO · Heavens-Above · Gunter

§ Orbital elements

Epoch: 2026-05-24T23:28:17.915232Z

Period
94.27 min
Inclination
43.0022°
Eccentricity
0.0001632
Mean motion
15.27581297 rev/d
Perigee alt
481.9 km
Apogee alt
484.2 km
Semi-major
6,861.2 km
B*
-4.6905e-5
RAAN
250.4253°
Arg perigee
275.7199°
Mean anomaly
84.3467°
Rev number
18,313

§ Raw data

STARLINK-56441 55369U 23013AQ  26144.97798513 -.00001553  00000+0 -46905-4 0  99962 55369  43.0022 250.4253 0001632 275.7199  84.3467 15.27581297183139

JSON: /api/v1/satellites/55369 · /tle

For live sub-satellite position, see the globe view (requires WebGL).

§ Visibility from observer

Set your observer location to see the next 7 days of passes ≥ 10°. The values pass through the URL so the page stays shareable.

No JS? Fill the form by hand. The geolocation button needs JavaScript.